sat.trackr.live / text

‹ back to catalog

STARLINK-34701

NORAD 64953 · 2025-158X

PAYLOAD ACTIVE UNKNOWN

§ Identity

Operator
Country
US
Launch date
2025-07-27
Launch site
AFWTR
Launch vehicle
Mass (kg)
RCS (m²)

Purposes: comms

External: N2YO · Heavens-Above · Gunter

§ Orbital elements

Epoch: 2026-05-25T03:25:08.396256Z

Period
95.64 min
Inclination
97.4499°
Eccentricity
0.0002611
Mean motion
15.05644845 rev/d
Perigee alt
547.7 km
Apogee alt
551.3 km
Semi-major
6,927.7 km
B*
8.1691e-4
RAAN
9.1257°
Arg perigee
92.8443°
Mean anomaly
267.3083°
Rev number
4,686

§ Raw data

STARLINK-347011 64953U 25158X   26145.14245829  .00011747  00000+0  81691-3 0  99982 64953  97.4499   9.1257 0002611  92.8443 267.3083 15.05644845 46860

JSON: /api/v1/satellites/64953 · /tle

For live sub-satellite position, see the globe view (requires WebGL).

§ Visibility from observer

Set your observer location to see the next 7 days of passes ≥ 10°. The values pass through the URL so the page stays shareable.

No JS? Fill the form by hand. The geolocation button needs JavaScript.